LiveATC.Net - Listen to live air traffic control over the Internet! Contact LiveATC.net for advertising information


ICAO: KFTW  IATA: FTW   Airport: Fort Worth Meacham International Airport
City: Fort Worth   State/Province: Texas
Country: United States   Continent: North America
KFTW METAR Weather: KFTW 010753Z AUTO 03005KT 10SM CLR 08/M01 A3036 RMK AO2 SLP280 T00781011
KFTW Flight Activity (FlightAware)
KFTW Airport Info   (AirNav) (iFlightPlanner)
KFTW Tower
Feed Status: DOWN
Last heard on: 2014-10-28 16:52:02 (3 days 15 hours 30 minutes ago)
KFTW Tower Audio Archives
FacilityFrequency
Meacham Tower118.300


NOTICE

Unauthorized use prohibited. See LiveATC.net Terms of Service


Find LiveATC Audio Streams


Airport/ARTCC Code

Frequency
(e.g., 124.400, 128.75)
Site-wide search

Browse LiveATC Feeds
LiveATC Coverage Map
Top 50 LiveATC Feeds
Bad Weather Areas

LiveATC FAQ
Offer a LiveATC Feed
Contact LiveATC.net
Press Inquiries

LiveATC on iPhone
LiveATC on Android

LiveATC Mobile
(Mobile browser)

ATC Audio Archives
Interesting Recordings

LiveATC Forums


Home Page
About LiveATC.net
Make a Donation
LiveATC Bookstore

Terms of Use
Privacy Policy

ATC/Radar Sites
U.S. ARTCC Freqs
Canadian Air Freqs

AIRMETs/SIGMETs

FAA Airport Status
Nat'l Airspace Status
Arrival Demand Charts


Server Software By:
Icecast.org
Liquidsoap

Please make a donation to help us keep growing!